This is the latest recevied weather packets stored in our database for station/object DM3DP. If no packets are shown the sender has not sent any weather packets the latest 10 day(s).
| Time | Temp. | Humidity | Pressure | Rain* | Wind** | Luminosity | Snow |
|---|---|---|---|---|---|---|---|
| 1777660562 | 20.56° C | 37% | 1020.4 hPa | 0 mm | - | 8 W/m² | - |
| 1777660231 | 21.67° C | 37% | 1020.3 hPa | 0 mm | - | 13 W/m² | - |
| 1777659242 | 22.22° C | 36% | 1020.3 hPa | 0 mm | - | 19 W/m² | - |
| 1777658912 | 22.78° C | 35% | 1020.3 hPa | 0 mm | - | 21 W/m² | - |
| 1777656931 | 22.22° C | 32% | 1020.3 hPa | 0 mm | - | 34 W/m² | - |
| 1777655612 | 22.22° C | 30% | 1020.3 hPa | 0 mm | - | 461 W/m² | - |
| 1777654622 | 22.22° C | 29% | 1020.3 hPa | 0 mm | - | 523 W/m² | - |
| 1777654291 | 22.22° C | 29% | 1020.3 hPa | 0 mm | - | 538 W/m² | - |
| 1777653302 | 22.78° C | 29% | 1020.5 hPa | 0 mm | - | 603 W/m² | - |
| 1777652641 | 22.78° C | 31% | 1020.5 hPa | 0 mm | - | 627 W/m² | - |
| 1777652311 | 22.78° C | 31% | 1020.6 hPa | 0 mm | - | 640 W/m² | - |
| 1777651981 | 22.78° C | 30% | 1020.6 hPa | 0 mm | - | 651 W/m² | - |
| 1777651651 | 23.33° C | 30% | 1020.6 hPa | 0 mm | - | 661 W/m² | - |
| 1777651321 | 23.33° C | 30% | 1020.6 hPa | 0 mm | - | 671 W/m² | - |
| 1777650991 | 23.33° C | 31% | 1020.6 hPa | 0 mm | - | 680 W/m² | - |
| 1777650661 | 23.33° C | 30% | 1020.7 hPa | 0 mm | - | 689 W/m² | - |
| 1777650001 | 23.33° C | 31% | 1020.9 hPa | 0 mm | - | 713 W/m² | - |
| 1777649671 | 23.33° C | 30% | 1020.9 hPa | 0 mm | - | 718 W/m² | - |
| 1777649341 | 23.33° C | 30% | 1021 hPa | 0 mm | - | 725 W/m² | - |
| 1777649011 | 23.33° C | 31% | 1021.2 hPa | 0 mm | - | 730 W/m² | - |
| 1777648682 | 23.89° C | 31% | 1021.2 hPa | 0 mm | - | 734 W/m² | - |
| 1777648351 | 23.89° C | 30% | 1021.2 hPa | 0 mm | - | 737 W/m² | - |
| 1777648021 | 23.89° C | 30% | 1021.3 hPa | 0 mm | - | 741 W/m² | - |
| 1777647691 | 23.89° C | 30% | 1021.3 hPa | 0 mm | - | 743 W/m² | - |
| 1777647362 | 23.89° C | 32% | 1021.4 hPa | 0 mm | - | 746 W/m² | - |
* Rain latest hour (hover to see other rain measurements)
** Current wind speed in m/s (hover to see current wind gust speed)